Time,TemperatureF,DewpointF,PressureIn,WindDirection,WindDirectionDegrees,WindSpeedMPH,WindSpeedGustMPH,Humidity,HourlyPrecipIn,Conditions,Clouds,dailyrainin,SolarRadiationWatts/m^2,SoftwareType,DateUTC
2013-05-03 00:03:00,51.0,50.0,-100.00,NE,54,3.0,6.0,98,0.00,,,0.17,0.000000,,2013-05-03 04:03:00,
2013-05-03 00:32:00,51.0,50.0,-100.00,NE,41,4.0,8.0,98,0.01,,,0.18,0.000000,,2013-05-03 04:32:00,
2013-05-03 00:43:00,51.0,50.0,-100.00,NE,41,4.0,8.0,98,0.01,,,0.18,0.000000,,2013-05-03 04:43:00,
2013-05-03 00:53:00,51.0,50.0,-100.00,NE,41,4.0,8.0,98,0.01,,,0.18,0.000000,,2013-05-03 04:53:00,
2013-05-03 01:03:00,51.0,50.0,-100.00,NE,41,4.0,8.0,98,0.01,,,0.18,0.000000,,2013-05-03 05:03:00,
2013-05-03 01:22:00,50.0,49.0,-100.00,NE,36,4.0,11.0,97,0.02,,,0.20,0.000000,,2013-05-03 05:22:00,
2013-05-03 01:32:00,50.0,49.0,-100.00,NE,36,4.0,11.0,97,0.02,,,0.20,0.000000,,2013-05-03 05:32:00,
2013-05-03 01:42:00,50.0,49.0,-100.00,NE,36,4.0,11.0,97,0.02,,,0.20,0.000000,,2013-05-03 05:42:00,
2013-05-03 01:52:00,50.0,49.0,-100.00,NE,36,4.0,11.0,97,0.02,,,0.20,0.000000,,2013-05-03 05:52:00,
2013-05-03 02:02:00,50.0,49.0,-100.00,NE,36,4.0,11.0,97,0.02,,,0.20,0.000000,,2013-05-03 06:02:00,
2013-05-03 02:32:00,50.0,49.0,-100.00,NE,53,5.0,10.0,97,0.01,,,0.21,0.000000,,2013-05-03 06:32:00,
2013-05-03 02:42:00,50.0,49.0,-100.00,NE,53,5.0,10.0,97,0.01,,,0.21,0.000000,,2013-05-03 06:42:00,
2013-05-03 02:52:00,50.0,49.0,-100.00,NE,53,5.0,10.0,97,0.01,,,0.21,0.000000,,2013-05-03 06:52:00,
2013-05-03 03:01:00,50.0,49.0,-100.00,NE,53,5.0,10.0,97,0.01,,,0.21,0.000000,,2013-05-03 07:01:00,
2013-05-03 03:22:00,50.0,49.0,-100.00,NE,52,2.0,8.0,97,0.03,,,0.24,0.000000,,2013-05-03 07:22:00,
2013-05-03 03:32:00,50.0,49.0,-100.00,NE,52,2.0,8.0,97,0.03,,,0.24,0.000000,,2013-05-03 07:32:00,
2013-05-03 03:42:00,50.0,49.0,-100.00,NE,52,2.0,8.0,97,0.03,,,0.24,0.000000,,2013-05-03 07:42:00,
2013-05-03 03:52:00,50.0,49.0,-100.00,NE,52,2.0,8.0,97,0.03,,,0.24,0.000000,,2013-05-03 07:52:00,
2013-05-03 04:02:00,50.0,49.0,-100.00,NE,52,2.0,8.0,97,0.03,,,0.24,0.000000,,2013-05-03 08:02:00,
2013-05-03 04:32:00,50.0,49.0,-100.00,ENE,60,3.0,9.0,97,0.02,,,0.26,0.000000,,2013-05-03 08:32:00,
2013-05-03 04:42:00,50.0,49.0,-100.00,ENE,60,3.0,9.0,97,0.02,,,0.26,0.000000,,2013-05-03 08:42:00,
2013-05-03 04:53:00,50.0,49.0,-100.00,ENE,60,3.0,9.0,97,0.02,,,0.26,0.000000,,2013-05-03 08:53:00,
2013-05-03 05:01:00,50.0,49.0,-100.00,ENE,60,3.0,9.0,97,0.02,,,0.26,0.000000,,2013-05-03 09:01:00,
2013-05-03 05:33:00,49.0,48.0,-100.00,NNE,32,3.0,10.0,97,0.02,,,0.27,0.000000,,2013-05-03 09:33:00,
2013-05-03 05:42:00,49.0,48.0,-100.00,NNE,32,3.0,10.0,97,0.02,,,0.27,0.000000,,2013-05-03 09:42:00,
2013-05-03 05:53:00,49.0,48.0,-100.00,NNE,32,3.0,10.0,97,0.02,,,0.27,0.000000,,2013-05-03 09:53:00,
2013-05-03 06:03:00,49.0,48.0,-100.00,NNE,32,3.0,10.0,97,0.02,,,0.27,0.000000,,2013-05-03 10:03:00,
2013-05-03 06:32:00,49.0,48.0,-100.00,ENE,60,5.0,11.0,97,0.01,,,-99.99,0.000000,,2013-05-03 10:32:00,
2013-05-03 06:42:00,49.0,48.0,-100.00,ENE,60,5.0,11.0,97,0.01,,,-99.99,0.000000,,2013-05-03 10:42:00,
2013-05-03 06:52:00,49.0,48.0,-100.00,ENE,60,5.0,11.0,97,0.01,,,-99.99,0.000000,,2013-05-03 10:52:00,
2013-05-03 07:02:00,49.0,48.0,-100.00,ENE,60,5.0,11.0,97,0.01,,,-99.99,0.000000,,2013-05-03 11:02:00,
2013-05-03 07:32:00,49.0,48.0,-100.00,NE,55,4.0,11.0,96,0.02,,,0.29,1.000000,,2013-05-03 11:32:00,
2013-05-03 07:42:00,49.0,48.0,-100.00,NE,55,4.0,11.0,96,0.02,,,0.29,1.000000,,2013-05-03 11:42:00,
2013-05-03 07:52:00,49.0,48.0,-100.00,NE,55,4.0,11.0,96,0.02,,,0.29,1.000000,,2013-05-03 11:52:00,
2013-05-03 08:02:00,49.0,48.0,-100.00,NE,55,4.0,11.0,96,0.02,,,0.29,1.000000,,2013-05-03 12:02:00,
2013-05-03 08:32:00,48.0,47.0,-100.00,NE,50,4.0,11.0,97,0.02,,,0.27,12.000000,,2013-05-03 12:32:00,
2013-05-03 08:42:00,48.0,47.0,-100.00,NE,50,4.0,11.0,97,0.02,,,0.27,12.000000,,2013-05-03 12:42:00,
2013-05-03 08:52:00,48.0,47.0,-100.00,NE,50,4.0,11.0,97,0.02,,,0.27,12.000000,,2013-05-03 12:52:00,
2013-05-03 09:01:00,48.0,47.0,-100.00,NE,50,4.0,11.0,97,0.02,,,0.27,12.000000,,2013-05-03 13:01:00,
2013-05-03 09:32:00,48.0,47.0,-100.00,NE,47,4.0,9.0,97,0.02,,,0.25,35.000000,,2013-05-03 13:32:00,
2013-05-03 09:42:00,48.0,47.0,-100.00,NE,47,4.0,9.0,97,0.02,,,0.25,35.000000,,2013-05-03 13:42:00,
2013-05-03 09:52:00,48.0,47.0,-100.00,NE,47,4.0,9.0,97,0.02,,,0.25,35.000000,,2013-05-03 13:52:00,
2013-05-03 10:02:00,48.0,47.0,-100.00,NE,47,4.0,9.0,97,0.02,,,0.25,35.000000,,2013-05-03 14:02:00,
2013-05-03 10:32:00,48.0,47.0,-100.00,North,359,3.0,9.0,96,0.03,,,0.26,54.000000,,2013-05-03 14:32:00,
2013-05-03 10:42:00,48.0,47.0,-100.00,North,359,3.0,9.0,96,0.03,,,0.26,54.000000,,2013-05-03 14:42:00,
2013-05-03 10:52:00,48.0,47.0,-100.00,North,359,3.0,9.0,96,0.03,,,0.26,54.000000,,2013-05-03 14:52:00,
2013-05-03 11:01:00,48.0,47.0,-100.00,North,359,3.0,9.0,96,0.03,,,0.26,54.000000,,2013-05-03 15:01:00,
2013-05-03 11:32:00,49.0,48.0,-100.00,ENE,57,4.0,11.0,95,0.00,,,0.24,101.000000,,2013-05-03 15:32:00,
2013-05-03 11:43:00,49.0,48.0,-100.00,ENE,57,4.0,11.0,95,0.00,,,0.24,101.000000,,2013-05-03 15:43:00,
2013-05-03 11:53:00,49.0,48.0,-100.00,ENE,57,4.0,11.0,95,0.00,,,0.24,101.000000,,2013-05-03 15:53:00,
2013-05-03 12:03:00,49.0,48.0,-100.00,ENE,57,4.0,11.0,95,0.00,,,0.24,101.000000,,2013-05-03 16:03:00,
2013-05-03 12:33:00,52.0,45.0,-100.00,East,92,3.0,10.0,76,0.00,,,0.24,436.000000,,2013-05-03 16:33:00,
2013-05-03 12:42:00,52.0,45.0,-100.00,East,92,3.0,10.0,76,0.00,,,0.24,436.000000,,2013-05-03 16:42:00,
2013-05-03 12:52:00,52.0,45.0,-100.00,East,92,3.0,10.0,76,0.00,,,0.24,436.000000,,2013-05-03 16:52:00,
2013-05-03 13:02:00,52.0,45.0,-100.00,East,92,3.0,10.0,76,0.00,,,0.24,436.000000,,2013-05-03 17:02:00,
2013-05-03 13:23:00,51.0,45.0,-100.00,ENE,72,3.0,8.0,79,0.00,,,0.24,233.000000,,2013-05-03 17:23:00,
2013-05-03 13:32:00,51.0,45.0,-100.00,ENE,72,3.0,8.0,79,0.00,,,0.24,233.000000,,2013-05-03 17:32:00,
2013-05-03 13:42:00,51.0,45.0,-100.00,ENE,72,3.0,8.0,79,0.00,,,0.24,233.000000,,2013-05-03 17:42:00,
2013-05-03 13:52:00,51.0,45.0,-100.00,ENE,72,3.0,8.0,79,0.00,,,0.24,233.000000,,2013-05-03 17:52:00,
2013-05-03 14:01:00,51.0,45.0,-100.00,ENE,72,3.0,8.0,79,0.00,,,0.24,233.000000,,2013-05-03 18:01:00,
2013-05-03 14:32:00,52.0,46.0,-100.00,East,98,3.0,12.0,79,0.00,,,0.24,174.000000,,2013-05-03 18:32:00,
2013-05-03 14:42:00,52.0,46.0,-100.00,East,98,3.0,12.0,79,0.00,,,0.24,174.000000,,2013-05-03 18:42:00,
2013-05-03 14:52:00,52.0,46.0,-100.00,East,98,3.0,12.0,79,0.00,,,0.24,174.000000,,2013-05-03 18:52:00,
2013-05-03 15:01:00,52.0,46.0,-100.00,East,98,3.0,12.0,79,0.00,,,0.24,174.000000,,2013-05-03 19:01:00,
2013-05-03 15:32:00,51.0,48.0,-100.00,NNE,27,2.0,10.0,90,0.01,,,0.25,150.000000,,2013-05-03 19:32:00,
2013-05-03 15:42:00,51.0,48.0,-100.00,NNE,27,2.0,10.0,90,0.01,,,0.25,150.000000,,2013-05-03 19:42:00,
2013-05-03 15:52:00,51.0,48.0,-100.00,NNE,27,2.0,10.0,90,0.01,,,0.25,150.000000,,2013-05-03 19:52:00,
2013-05-03 16:02:00,51.0,48.0,-100.00,NNE,27,2.0,10.0,90,0.01,,,0.25,150.000000,,2013-05-03 20:02:00,
2013-05-03 16:32:00,51.0,49.0,-100.00,ENE,73,5.0,12.0,94,0.01,,,0.26,97.000000,,2013-05-03 20:32:00,
2013-05-03 16:42:00,51.0,49.0,-100.00,ENE,73,5.0,12.0,94,0.01,,,0.26,97.000000,,2013-05-03 20:42:00,
2013-05-03 16:52:00,51.0,49.0,-100.00,ENE,73,5.0,12.0,94,0.01,,,0.26,97.000000,,2013-05-03 20:52:00,
2013-05-03 17:01:00,51.0,49.0,-100.00,ENE,73,5.0,12.0,94,0.01,,,0.26,97.000000,,2013-05-03 21:01:00,
2013-05-03 17:33:00,51.0,47.0,-100.00,East,88,4.0,10.0,86,0.00,,,0.26,103.000000,,2013-05-03 21:33:00,
2013-05-03 17:43:00,51.0,47.0,-100.00,East,88,4.0,10.0,86,0.00,,,0.26,103.000000,,2013-05-03 21:43:00,
2013-05-03 17:53:00,51.0,47.0,-100.00,East,88,4.0,10.0,86,0.00,,,0.26,103.000000,,2013-05-03 21:53:00,
2013-05-03 18:03:00,51.0,47.0,-100.00,East,88,4.0,10.0,86,0.00,,,0.26,103.000000,,2013-05-03 22:03:00,
2013-05-03 20:32:00,50.0,48.0,-100.00,ENE,60,5.0,14.0,92,-99.99,,,0.27,4.000000,,2013-05-04 00:32:00,
2013-05-03 20:42:00,50.0,48.0,-100.00,ENE,60,5.0,14.0,92,-99.99,,,0.27,4.000000,,2013-05-04 00:42:00,
2013-05-03 20:52:00,50.0,48.0,-100.00,ENE,60,5.0,14.0,92,-99.99,,,0.27,4.000000,,2013-05-04 00:52:00,
2013-05-03 21:01:00,50.0,48.0,-100.00,ENE,60,5.0,14.0,92,-99.99,,,0.27,4.000000,,2013-05-04 01:01:00,
2013-05-03 21:32:00,49.0,47.0,-100.00,East,93,4.0,18.0,94,0.03,,,0.29,0.000000,,2013-05-04 01:32:00,
2013-05-03 21:42:00,49.0,47.0,-100.00,East,93,4.0,18.0,94,0.03,,,0.29,0.000000,,2013-05-04 01:42:00,
2013-05-03 21:52:00,49.0,47.0,-100.00,East,93,4.0,18.0,94,0.03,,,0.29,0.000000,,2013-05-04 01:52:00,
2013-05-03 22:02:00,49.0,47.0,-100.00,East,93,4.0,18.0,94,0.03,,,0.29,0.000000,,2013-05-04 02:02:00,
2013-05-03 22:21:00,50.0,47.0,-100.00,ESE,108,6.0,15.0,90,0.00,,,0.28,0.000000,,2013-05-04 02:21:00,
2013-05-03 22:32:00,50.0,47.0,-100.00,ESE,108,6.0,15.0,90,0.00,,,0.28,0.000000,,2013-05-04 02:32:00,
2013-05-03 22:42:00,50.0,47.0,-100.00,ESE,108,6.0,15.0,90,0.00,,,0.28,0.000000,,2013-05-04 02:42:00,
2013-05-03 22:52:00,50.0,47.0,-100.00,ESE,108,6.0,15.0,90,0.00,,,0.28,0.000000,,2013-05-04 02:52:00,
2013-05-03 23:02:00,50.0,47.0,-100.00,ESE,108,6.0,15.0,90,0.00,,,0.28,0.000000,,2013-05-04 03:02:00,
2013-05-03 23:22:00,49.0,46.0,-100.00,NE,54,4.0,15.0,91,0.00,,,0.28,0.000000,,2013-05-04 03:22:00,
2013-05-03 23:33:00,49.0,46.0,-100.00,NE,54,4.0,15.0,91,0.00,,,0.28,0.000000,,2013-05-04 03:33:00,
2013-05-03 23:43:00,49.0,46.0,-100.00,NE,54,4.0,15.0,91,0.00,,,0.28,0.000000,,2013-05-04 03:43:00,
2013-05-03 23:53:00,49.0,46.0,-100.00,NE,54,4.0,15.0,91,0.00,,,0.28,0.000000,,2013-05-04 03:53:00,